Tracking 27188 objects as of 2-Apr-2023
HD Live streaming from Space Station
objects crossing your sky now

COSMOS 1375 DEB

Track COSMOS 1375 DEB now!
10-day predictions


NORAD ID: 18477
Int'l Code: 1982-055BF
Perigee: 796.7 km
Apogee: 844.6 km
Inclination: 65.8 °
Period: 101.2 minutes
Semi major axis: 7191 km
RCS: 0.0083 m2 (small)
Launch date: June 6, 1982
Source: Commonwealth of Independent States (former USSR) (CIS)
Launch site: PLESETSK MISSILE AND SPACE COMPLEX (PKMTR)

Note: This is SATELLITE DEBRIS
Your satellite tracking list
Your tracking list is empty




NASA's NSSDC Master Catalog

Two Line Element Set (TLE):
1 18477U 82055BF  23091.35848951  .00008718  00000-0  38402-2 0  9998
2 18477  65.8250 176.2883 0033276 270.2100  89.5174 14.23510140909848
Source of the keplerian elements: AFSPC